This is the latest recevied weather packets stored in our database for station/object LEBL. If no packets are shown the sender has not sent any weather packets the latest 10 day(s).
| Time | Temp. | Humidity | Pressure | Rain* | Wind** | Luminosity | Snow |
|---|---|---|---|---|---|---|---|
| 1777977904 | 17.78° C | 63% | 1012 hPa | - | - | - | - |
| 1777976105 | 17.78° C | 67% | 1012 hPa | - | - | - | - |
| 1777975205 | 17.22° C | 67% | 1011 hPa | - | - | - | - |
| 1777974304 | 17.22° C | 67% | 1011 hPa | - | - | - | - |
| 1777973404 | 17.22° C | 72% | 1012 hPa | - | - | - | - |
| 1777972504 | 17.22° C | 72% | 1012 hPa | - | - | - | - |
| 1777971605 | 16.11° C | 72% | 1012 hPa | - | - | - | - |
| 1777968905 | 16.11° C | 77% | 1012 hPa | - | - | - | - |
| 1777968004 | 15° C | 76% | 1011 hPa | - | - | - | - |
| 1777966204 | 13.89° C | 82% | 1012 hPa | - | - | - | - |
| 1777964404 | 12.78° C | 87% | 1012 hPa | - | - | - | - |
| 1777963504 | 12.78° C | 87% | 1012 hPa | - | - | - | - |
| 1777962605 | 12.22° C | 93% | 1012 hPa | - | - | - | - |
| 1777961703 | 12.22° C | 93% | 1012 hPa | - | - | - | - |
| 1777960805 | 12.22° C | 87% | 1011 hPa | - | - | - | - |
| 1777959904 | 12.22° C | 87% | 1011 hPa | - | - | - | - |
| 1777958104 | 12.22° C | 93% | 1012 hPa | - | - | - | - |
| 1777955404 | 12.78° C | 87% | 1012 hPa | - | - | - | - |
| 1777954504 | 12.78° C | 87% | 1012 hPa | - | - | - | - |
| 1777952704 | 12.78° C | 87% | 1012 hPa | - | - | - | - |
| 1777951804 | 12.78° C | 87% | 1012 hPa | - | - | - | - |
| 1777950904 | 12.78° C | 87% | 1012 hPa | - | - | - | - |
| 1777950005 | 12.78° C | 87% | 1012 hPa | - | - | - | - |
| 1777948204 | 12.78° C | 87% | 1012 hPa | - | - | - | - |
| 1777945504 | 12.78° C | 93% | 1012 hPa | - | - | - | - |
* Rain since midnight (hover to see other rain measurements)
** Current wind speed in m/s (hover to see current wind gust speed)